Date String (YYYY-MM-DD hh:mm:ss) UTC,Instrument flags,absolute air pressure of the measurement (hPa),sample flow rate (lpm),inlet stack bypass flow (lpm),air temperature of the measurement (°C),ambient temperature measured by the external sensor (°C),aerosol sample conditioner tube jacket temperature (°C),OPC LED temperature (°C),internal box temperature (°C),relative humidity of the measurement (%),span deviation,mass concentration of particles derived from Lorenz-Mie calculation of OPC scattering (μg/m³),mass concentration of particles derived from Lorenz-Mie calculation of OPC scattering (μg/m³),mass concentration of particles derived from Lorenz-Mie calculation of OPC scattering (μg/m³)
DateTimeUTC,F1_M11,P_M11,Q1_M11,Q2_M11,T1_M11,T2_M11,T3_M11,T4_M11,T5_M11,U1_M11,ZSPAN_M11,X0_M11,X2_M11,X1_M11
2024-01-02 18:00:00,SystemResetWarning,0832.9,5.00,000.00,022.4,021.8,000.0,030.5,023.9,14.3,0000.0,0008.70,0004.39,0004.00
2024-01-02 18:01:00,SystemResetWarning,0832.8,5.00,000.00,022.4,021.8,000.0,030.6,023.9,14.2,0000.0,0008.82,0004.42,0004.01
2024-01-02 18:02:00,SystemResetWarning,0832.7,5.00,000.00,022.4,021.8,000.0,030.6,024.0,14.0,0000.0,0008.71,0004.47,0004.03
2024-01-02 18:03:00,SystemResetWarning,0832.7,5.00,000.00,022.4,021.8,000.0,030.6,024.0,13.9,0000.0,0008.86,0004.51,0004.04
2024-01-02 18:04:00,SystemResetWarning,0832.7,5.00,000.00,022.5,021.8,000.0,030.6,024.0,13.9,0000.0,0008.80,0004.50,0004.05
2024-01-02 18:05:00,SystemResetWarning,0832.6,4.99,000.00,022.5,021.8,000.0,030.6,024.0,13.9,0000.0,0008.11,0004.47,0004.04
2024-01-02 18:06:00,SystemResetWarning,0832.6,5.00,000.00,022.5,021.8,000.0,030.6,024.0,13.9,0000.0,0008.15,0004.48,0004.04
2024-01-02 18:07:00,SystemResetWarning,0832.7,5.00,000.00,022.5,021.9,000.0,030.6,024.0,13.9,0000.0,0008.24,0004.50,0004.04
2024-01-02 18:08:00,SystemResetWarning,0832.6,5.01,000.00,022.5,021.9,000.0,030.7,024.1,14.0,0000.0,0008.37,0004.52,0004.05
2024-01-02 18:09:00,SystemResetWarning,0832.6,5.00,000.00,022.5,021.9,000.0,030.7,024.1,14.0,0000.0,0008.71,0004.51,0004.05
2024-01-02 18:10:00,SystemResetWarning,0832.6,5.00,000.00,022.6,021.9,000.0,030.7,024.1,13.9,0000.0,0008.92,0004.54,0004.06
2024-01-02 18:11:00,SystemResetWarning,0832.6,5.00,000.00,022.6,021.9,000.0,030.7,024.1,13.9,0000.0,0009.22,0004.54,0004.07
2024-01-02 18:12:00,SystemResetWarning,0832.6,5.00,000.00,022.6,021.9,000.0,030.7,024.1,13.9,0000.0,0009.28,0004.53,0004.08
2024-01-02 18:13:00,SystemResetWarning,0832.6,5.00,000.00,022.6,022.0,000.0,030.7,024.1,13.7,0000.0,0009.22,0004.53,0004.09
2024-01-02 18:14:00,SystemResetWarning,0832.5,5.00,000.00,022.6,022.0,000.0,030.8,024.1,13.6,0000.0,0009.32,0004.55,0004.09
2024-01-02 18:15:00,SystemResetWarning,0832.5,5.00,000.00,022.6,022.0,000.0,030.8,024.1,13.6,0000.0,0009.19,0004.57,0004.09
2024-01-02 18:16:00,SystemResetWarning,0832.5,4.99,000.00,022.6,022.0,000.0,030.8,024.2,13.6,0000.0,0009.30,0004.62,0004.11
2024-01-02 18:17:00,SystemResetWarning,0832.5,5.01,000.00,022.7,022.0,000.0,030.8,024.2,13.7,0000.0,0009.34,0004.63,0004.10
2024-01-02 18:18:00,SystemResetWarning,0832.5,5.01,000.00,022.7,022.0,000.0,030.8,024.2,13.9,0000.0,0009.23,0004.62,0004.12
2024-01-02 18:19:00,SystemResetWarning,0832.5,5.00,000.00,022.7,022.0,000.0,030.8,024.2,13.8,0000.0,0009.08,0004.59,0004.13
2024-01-02 18:20:00,SystemResetWarning,0832.4,5.00,000.00,022.7,022.1,000.0,030.8,024.3,14.0,0000.0,0008.99,0004.60,0004.13
2024-01-02 18:21:00,SystemResetWarning,0832.4,4.99,000.00,022.7,022.1,000.0,030.9,024.3,14.1,0000.0,0009.91,0004.64,0004.15
2024-01-02 18:22:00,SystemResetWarning,0832.3,5.00,000.00,022.7,022.1,000.0,030.9,024.3,13.9,0000.0,0010.22,0004.65,0004.16
2024-01-02 18:23:00,SystemResetWarning,0832.3,4.99,000.00,022.8,022.1,000.0,030.9,024.3,13.7,0000.0,0009.93,0004.66,0004.17
2024-01-02 18:24:00,SystemResetWarning,0832.3,5.00,000.00,022.8,022.1,000.0,030.9,024.3,13.7,0000.0,0009.76,0004.63,0004.17
2024-01-02 18:25:00,SystemResetWarning,0832.3,5.01,000.00,022.8,022.1,000.0,030.9,024.3,13.7,0000.0,0009.74,0004.61,0004.19
2024-01-02 18:26:00,SystemResetWarning,0832.2,5.00,000.00,022.8,022.2,000.0,030.9,024.3,13.8,0000.0,0010.30,0004.64,0004.20
2024-01-02 18:27:00,SystemResetWarning,0832.2,5.00,000.00,022.8,022.2,000.0,031.0,024.3,13.8,0000.0,0010.62,0004.62,0004.20
2024-01-02 18:28:00,SystemResetWarning,0832.2,4.99,000.00,022.8,022.2,000.0,031.0,024.4,13.7,0000.0,0011.20,0004.64,0004.22
2024-01-02 18:29:00,SystemResetWarning,0832.2,5.00,000.00,022.8,022.2,000.0,031.0,024.4,13.7,0000.0,0011.46,0004.70,0004.23
2024-01-02 18:30:00,SystemResetWarning,0832.2,5.00,000.00,022.9,022.2,000.0,031.0,024.4,13.6,0000.0,0011.64,0004.75,0004.25
2024-01-02 18:31:00,SystemResetWarning,0832.1,5.01,000.00,022.9,022.2,000.0,031.0,024.4,13.5,0000.0,0012.30,0004.79,0004.27
2024-01-02 18:32:00,SystemResetWarning,0832.1,5.01,000.00,022.9,022.2,000.0,031.0,024.4,13.4,0000.0,0011.21,0004.77,0004.29
2024-01-02 18:33:00,SystemResetWarning,0832.1,4.99,000.00,022.9,022.3,000.0,031.0,024.4,13.3,0000.0,0010.58,0004.77,0004.30
2024-01-02 18:34:00,SystemResetWarning,0832.1,4.99,000.00,022.9,022.3,000.0,031.1,024.4,13.3,0000.0,0010.59,0004.78,0004.30
2024-01-02 18:35:00,SystemResetWarning,0832.1,5.00,000.00,022.9,022.3,000.0,031.1,024.5,13.3,0000.0,0011.11,0004.82,0004.32
2024-01-02 18:36:00,SystemResetWarning,0832.1,5.00,000.00,022.9,022.3,000.0,031.1,024.5,13.2,0000.0,0011.19,0004.84,0004.33
2024-01-02 18:37:00,SystemResetWarning,0832.0,5.00,000.00,023.0,022.3,000.0,031.1,024.5,13.1,0000.0,0010.81,0004.83,0004.34
2024-01-02 18:38:00,SystemResetWarning,0832.1,5.00,000.00,023.0,022.3,000.0,031.1,024.5,13.1,0000.0,0010.51,0004.85,0004.37
2024-01-02 18:39:00,SystemResetWarning,0832.0,5.00,000.00,023.0,022.3,000.0,031.1,024.5,13.3,0000.0,0009.96,0004.88,0004.38
2024-01-02 18:40:00,SystemResetWarning,0832.0,5.00,000.00,023.0,022.4,000.0,031.1,024.5,13.4,0000.0,0009.72,0004.86,0004.39
2024-01-02 18:41:00,SystemResetWarning,0832.0,5.00,000.00,023.0,022.4,000.0,031.2,024.6,13.3,0000.0,0009.85,0004.88,0004.39
2024-01-02 18:42:00,SystemResetWarning,0832.0,5.00,000.00,023.0,022.4,000.0,031.2,024.6,13.2,0000.0,0009.43,0004.85,0004.37
2024-01-02 18:43:00,SystemResetWarning,0832.0,5.00,000.00,023.1,022.4,000.0,031.2,024.6,12.9,0000.0,0009.70,0004.82,0004.34
2024-01-02 18:44:00,SystemResetWarning,0831.9,5.00,000.00,023.1,022.4,000.0,031.2,024.6,12.9,0000.0,0010.56,0004.83,0004.32
2024-01-02 18:45:00,SystemResetWarning,0831.9,5.00,000.00,023.1,022.5,000.0,031.2,024.6,12.9,0000.0,0011.23,0004.81,0004.29
2024-01-02 18:46:00,SystemResetWarning,0831.9,5.00,000.00,023.1,022.5,000.0,031.2,024.6,12.9,0000.0,0011.85,0004.76,0004.26
2024-01-02 18:47:00,SystemResetWarning,0831.8,5.00,000.00,023.1,022.5,000.0,031.3,024.7,12.9,0000.0,0011.64,0004.70,0004.23
2024-01-02 18:48:00,SystemResetWarning,0832.1,5.00,000.00,023.1,022.5,000.0,031.3,024.7,12.9,0000.0,0011.30,0004.67,0004.19
2024-01-02 18:49:00,SystemResetWarning,0832.1,5.00,000.00,023.2,022.5,000.0,031.3,024.7,12.9,0000.0,0011.34,0004.61,0004.13
2024-01-02 18:50:00,SystemResetWarning,0832.1,5.00,000.00,023.2,022.5,000.0,031.3,024.7,13.0,0000.0,0011.76,0004.55,0004.09
2024-01-02 18:51:00,SystemResetWarning,0831.8,5.00,000.00,023.2,022.6,000.0,031.3,024.7,13.1,0000.0,0011.74,0004.52,0004.06
2024-01-02 18:52:00,SystemResetWarning,0831.7,5.01,000.00,023.2,022.6,000.0,031.4,024.8,12.9,0000.0,0011.57,0004.46,0004.04
2024-01-02 18:53:00,SystemResetWarning,0831.7,5.00,000.00,023.2,022.6,000.0,031.4,024.8,13.0,0000.0,0011.43,0004.45,0004.02
2024-01-02 18:54:00,SystemResetWarning,0831.6,5.00,000.00,023.3,022.6,000.0,031.4,024.8,13.0,0000.0,0011.35,0004.42,0004.02
2024-01-02 18:55:00,SystemResetWarning,0831.6,4.99,000.00,023.3,022.6,000.0,031.4,024.8,13.0,0000.0,0011.00,0004.37,0003.99
2024-01-02 18:56:00,SystemResetWarning,0831.6,4.99,000.00,023.3,022.7,000.0,031.4,024.8,13.1,0000.0,0010.78,0004.31,0003.96
2024-01-02 18:57:00,SystemResetWarning,0831.6,4.99,000.00,023.3,022.7,000.0,031.4,024.8,12.8,0000.0,0009.61,0004.29,0003.94
2024-01-02 18:58:00,SystemResetWarning,0831.6,5.00,000.00,023.3,022.7,000.0,031.4,024.8,12.8,0000.0,0010.20,0004.33,0003.92
2024-01-02 18:59:00,SystemResetWarning,0831.5,5.00,000.00,023.3,022.7,000.0,031.5,024.8,12.8,0000.0,0010.86,0004.37,0003.93
